Regional Weather Roundup
Issued by NWS

Home | Current Version | Previous Version | Graphics & Text | Print | Product List | Glossary On
Versions: 1 2 3 4 5 6 7 8 9 10 11 12 13 14 15 16 17 18 19 20 21 22 23 24 25 26 27 28 29 30 31 32 33 34 35 36 37 38 39 40 41 42 43 44 45 46 47 48 49 50
000
ASUS45 KTFX 220719
RWRMT
MONTANA HOURLY WEATHER ROUNDUP
NATIONAL WEATHER SERVICE GREAT FALLS MT
1219 AM MST SAT NOV 22 2014

NOTE: "FAIR" INDICATES FEW OR NO CLOUDS BELOW 12000 FEET WITH NO
SIGNIFICANT WEATHER AND/OR OBSTRUCTIONS TO VISIBILITY.

* THESE STATIONS ARE NOT UNDER NWS QUALITY CONTROL. THEY DO NOT
   REPORT WEATHER SUCH AS PRECIPITATION OR FOG.

MTZ001>007-043-220800-
WEST OF THE DIVIDE
CITY           SKY/WX    TMP DP  RH WIND       PRES   REMARKS
KALISPELL      LGT RAIN  34  34 100 S5        29.43F WCI  29
MISSOULA       LGT RAIN  37  34  89 SE12      29.53F WCI  29
BUTTE          CLOUDY    36  28  73 S15       29.63F WCI  27
MULLAN PASS    LGT SNOW  30  28  92 S8G25     29.39F VSB M1/4 WCI  22
* ESSEX        N/A       32  32 100 N/A        N/A
* EUREKA APT   CLOUDY    37  36  96 SE16G21   29.38F WCI  28
* HAMILTON APT MOCLDY    39  34  82 S15       29.54F WCI  31
* LIBBY APT    CLOUDY    32  30  92 CALM      29.41F VSB 2
* LINCOLN      N/A       38  26  62 W3G15      N/A
* LOOKOUT PASS N/A       33  32  96 S7G18      N/A   WCI  27
* POLSON       N/A       35  34  96 S2G10      N/A
* RONAN APT    CLOUDY    37  36  96 SE5        N/A   WCI  33
* SEELEY LAKE  N/A       33  31  92 N/A        N/A
* THOMP F APT  CLOUDY    30  24  78 SE8G16     N/A   WCI  22
* YAAK HILL    N/A       34  31  89 W2         N/A
$$

MTZ008-052>055-220800-
SOUTHWEST MONTANA
CITY           SKY/WX    TMP DP  RH WIND       PRES   REMARKS
BOZEMAN        CLOUDY    39  27  62 SW7       29.64F WCI  34
DILLON         MOCLDY    36  27  70 W5        29.66F WCI  32
* W YELLOWSTON CLOUDY    29  27  92 SW4G12     N/A
* ENNIS APT    CLOUDY    39  28  65 S31G40     N/A   WCI  27
* THREE FORKS  CLOUDY    45  30  56 S22G39     N/A
* BOULDER HILL N/A       37  21  52 SW24G29    N/A   WCI  26
* MONIDA PASS  N/A       27  26  96 SE21G29    N/A   WCI  13
* RAYNOLDS PAS N/A       31  14  49 S20G29     N/A   WCI  19
* WHITEHALL    N/A       42  23  47 SW15G24    N/A
* WISE RIVER   N/A       35  29  79 W8G23      N/A   WCI  28
$$

MTZ009>010-012-014-046-048-049-054-220800-
EAST SLOPES AND CENTRAL MONTANA
CITY           SKY/WX    TMP DP  RH WIND       PRES   REMARKS
CUT BANK       CLOUDY    37  28  70 SW6       29.39F WCI  32
GREAT FALLS    CLOUDY    43  27  53 S13       29.45F
HELENA         CLOUDY    46  25  44 S9        29.54F
MALMSTROM AFB  CLOUDY    45  28  51 S18G25    29.47F
* CONRAD       CLOUDY    41  30  65 SE14G22    N/A
* DEARBORN     N/A       48  25  41 S16G22     N/A
* EAST GLACIER N/A       36  29  76 W18G26     N/A   WCI  26
* MONARCH      N/A       39  20  46 S9G28      N/A   WCI  33
* PENDROY      N/A       39  29  67 S16G22     N/A   WCI  30
* ROGERS PASS  N/A       32  30  92 SE24G40    N/A   WCI  19
* SAINT MARY   N/A       39  28  65 S8G18      N/A   WCI  33
* SWEET GRASS  N/A       35  30  82 S14        N/A   WCI  26
* WHITE SULPH  N/A       41  24  51 S19G33     N/A
$$

MTZ011-013-016-021-035-040-045-047-050-051-220800-
NORTH CENTRAL MONTANA
CITY           SKY/WX    TMP DP  RH WIND       PRES   REMARKS
HAVRE          CLOUDY    36  28  73 CALM      29.45F
LEWISTOWN      CLOUDY    43  27  53 S18G25    29.52F
* N BAR RANCH  FAIR      36  21  54 SE8       29.56F WCI  30
* CHINOOK      MOCLDY    30  27  89 E7        29.47F WCI  23
* FORT BENTON  CLOUDY    43  28  56 SW8G18    29.47F
* CHESTER      N/A       34  28  79 SE5        N/A   WCI  29
* DENTON       N/A       40  27  60 S9         N/A   WCI  34
* GEYSER       N/A       46  22  39 SW23G28    N/A
* JUDITH GAP   N/A       32  24  72 SE7        N/A   WCI  25
* LOMA         N/A       34  29  82 NE7        N/A   WCI  28
$$

MTZ017>020-022>027-061-062-220800-
NORTHEAST MONTANA
CITY           SKY/WX    TMP DP  RH WIND       PRES   REMARKS
GLASGOW        CLEAR     27  21  78 E10       29.55F WCI  18
GLENDIVE       CLEAR     30  25  82 S12       29.64F WCI  20
JORDAN         PTCLDY    32  25  75 CALM      29.60S
SIDNEY         CLEAR     30  27  89 S3        29.63F
WOLF POINT     CLEAR     23  19  85 CALM      29.60S
* BEAVER HILL  N/A       36  25  64 S14        N/A   WCI  27
* CIRCLE       N/A       31  25  78 N/A        N/A
* LINDSAY DVD  N/A       35  26  70 SW10       N/A   WCI  27
* NAVAJO       N/A       30  27  89 W8         N/A   WCI  22
* PLENTYWOOD A CLEAR     28  27  96 E6        29.56F WCI  21
* POPLAR APT   CLEAR     34  30  85 N/A       29.59F
* SACO         N/A       32  27  82 SE3        N/A
$$

MTZ028>042-056>058-220800-
SOUTHCENTRAL AND SOUTHEAST MONTANA
CITY           SKY/WX    TMP DP  RH WIND       PRES   REMARKS
BAKER          CLEAR     37  25  62 SW12      29.66F WCI  29
BILLINGS       PTCLDY    34  23  64 SW10      29.61F WCI  26
LIVINGSTON     MOCLDY    46  25  44 SW30G51   29.60S
MILES CITY     CLEAR     30  25  82 SE7       29.65S WCI  23
* BIG TIMBER A MOCLDY    45  23  42 W13       29.59F
* FORSYTH APT  CLEAR     37  25  62 CALM      29.63F
* LAUREL APT   MOCLDY    37  19  48 SW5        N/A   WCI  33
* ALZADA       N/A       31  23  72 E6         N/A   WCI  25
* HYSHAM       N/A       39  18  43 W3         N/A
* LAME DEER    N/A       38  22  53 S11        N/A   WCI  31
* REED POINT   N/A       29  25  85 W2         N/A
* ROSCOE HILL  N/A       43  14  31 SW12G28    N/A
$$

REGIONAL REPORTS...DAKOTAS
CITY           SKY/WX    TMP DP  RH WIND       PRES   REMARKS
WILLISTON      CLEAR     27  25  92 CALM      29.61F
DICKINSON      CLEAR     36  25  64 SW12      29.63F WCI  28
BEACH          CLEAR     32  27  82 SW9       29.64F WCI  24
CROSBY         CLEAR     27  27 100 SW9       29.58F WCI  18
TIOGA          CLEAR     27  27 100 SW5       29.61F WCI  21
BISMARCK       CLEAR     28  27  96 W3        29.68F
GRAND FORKS    PTCLDY    32  27  82 W8        29.61S WCI  25
FARGO          PTCLDY    27  21  78 S8        29.68F WCI  19
BUFFALO SD     CLEAR     34  25  70 W8        29.63F WCI  27
RAPID CITY     CLEAR     34  21  59 SW3       29.76F
$$

REGIONAL REPORTS...WYOMING/IDAHO/WASHINGTON
CITY           SKY/WX    TMP DP  RH WIND       PRES   REMARKS
GILLETTE       CLEAR     34  21  59 S15       29.70F WCI  24
SHERIDAN       PTCLDY    36  19  50 SE5       29.66F WCI  32
CODY           MOCLDY    45  19  35 W13       29.68F
YELLOWSTONE LA MOCLDY    28  19  69 VRB3      29.86F
SALMON         CLOUDY    27  25  92 CALM      29.71F
MULLAN PASS    LGT SNOW  30  28  92 S8G25     29.39S VSB M1/4 WCI  22
SAND POINT     RAIN      36  36 100 CALM      29.41F
SPOKANE        CLOUDY    43  41  93 S24G32    29.35F
$$

REGIONAL REPORTS...ALBERTA
CITY           SKY/WX    TMP DP  RH WIND       PRES   REMARKS
CALGARY        MOCLDY    37  27  67 S6        29.20F WCI  32
LETHBRIDGE     CLOUDY    41  32  70 S20       29.32F
MEDICINE HAT   CLOUDY    32  30  92 SW6       29.38F WCI  26
EDMONTON       CLOUDY    34  30  85 E21       29.23F WCI  22
WATERTON GATE  N/A       37  30  76 SW16G23    N/A   WCI  28
CARDSTON       N/A       36  32  85 S5         N/A   WCI  32
MILK RIVER     N/A       37  30  76 S7         N/A   WCI  32
$$

REGIONAL REPORTS...SASKATCHEWAN
CITY           SKY/WX    TMP DP  RH WIND       PRES   REMARKS
SWIFT CURRENT  CLEAR     27  25  92 S9        29.45F WCI  18
REGINA         FAIR      30  28  92 S6        29.53F WCI  24
VAL MARIE      N/A       18  18 100 E2         N/A
ASSINIBOIA     N/A       28  25  89 S7         N/A   WCI  21

$$



USA.gov is the U.S. government's official web portal to all federal, state and local government web resources and services.